When you browse on this site, cookies collect data to enhance your experience and personalize the content and advertising you see.
Visit our Privacy Policy to learn more. By continuing to use the site, you agree to this use of cookies and data.
  • In United Kingdom
  • List of Countries
  • For 7 days
  • Water Temperature
  • Satellite Maps
  • Weather Map
  • Weather Widgets
  • user-avatar
    Login

    Hourly Weather Abergavenny

    Today, 18 June, Tuesday

    Time Temperature Precipitation Wind Pressure Humidity
    00:00 +11°C° 0 mm 1 mps 746 mmHg 97%
    01:00 +11°C° 0 mm 1 mps 746 mmHg 97%
    02:00 +11°C° 0 mm 1 mps 745 mmHg 97%
    03:00 +11°C° 0 mm 1 mps 745 mmHg 97%
    04:00 +12°C° 0 mm 1 mps 745 mmHg 96%
    05:00 +12°C° 0 mm 1 mps 745 mmHg 96%
    06:00 +13°C° 0 mm 1 mps 745 mmHg 95%
    07:00 +13°C° 0 mm 1 mps 745 mmHg 92%
    08:00 +14°C° 0 mm 2 mps 745 mmHg 89%
    09:00 +15°C° 0 mm 2 mps 745 mmHg 86%
    10:00 +15°C° 0.3 mm 2 mps 745 mmHg 87%
    11:00 +15°C° 0.3 mm 1 mps 744 mmHg 88%
    12:00 +16°C° 0 mm 2 mps 745 mmHg 80%
    13:00 +16°C° 0.2 mm 2 mps 744 mmHg 84%
    14:00 +15°C° 0.2 mm 2 mps 744 mmHg 88%
    15:00 +14°C° 0.2 mm 2 mps 743 mmHg 93%
    16:00 +14°C° 0.1 mm 1 mps 743 mmHg 91%
    17:00 +15°C° 0.1 mm 1 mps 743 mmHg 89%
    18:00 +15°C° 0.1 mm 1 mps 743 mmHg 87%
    19:00 +14°C° 0.1 mm 1 mps 742 mmHg 90%
    20:00 +14°C° 0.1 mm 1 mps 742 mmHg 92%
    21:00 +13°C° 0.1 mm 1 mps 742 mmHg 95%
    22:00 +11°C° 0 mm 0 mps 742 mmHg 95%
    23:00 +11°C° 0 mm 0 mps 742 mmHg 95%

    Tomorrow, 19 June, Wednesday

    Time Temperature Precipitation Wind Pressure Humidity
    00:00 +11°C° 0 mm 0 mps 741 mmHg 95%
    01:00 +12°C° 0 mm 1 mps 741 mmHg 95%
    02:00 +12°C° 0 mm 1 mps 741 mmHg 94%
    03:00 +13°C° 0 mm 1 mps 740 mmHg 94%
    04:00 +13°C° 0 mm 1 mps 740 mmHg 94%
    05:00 +13°C° 0 mm 1 mps 740 mmHg 94%
    06:00 +13°C° 0 mm 1 mps 740 mmHg 94%
    07:00 +13°C° 0 mm 1 mps 740 mmHg 92%
    08:00 +14°C° 0 mm 1 mps 740 mmHg 91%
    09:00 +14°C° 0 mm 1 mps 741 mmHg 89%
    10:00 +15°C° 0.1 mm 1 mps 741 mmHg 86%
    11:00 +16°C° 0.1 mm 2 mps 741 mmHg 82%
    12:00 +17°C° 0.1 mm 2 mps 741 mmHg 78%
    13:00 +17°C° 0.3 mm 3 mps 741 mmHg 80%
    14:00 +17°C° 0.3 mm 4 mps 741 mmHg 81%
    15:00 +17°C° 0.3 mm 4 mps 741 mmHg 83%
    16:00 +16°C° 0.1 mm 5 mps 741 mmHg 82%
    17:00 +15°C° 0.1 mm 5 mps 741 mmHg 81%
    18:00 +15°C° 0.1 mm 5 mps 741 mmHg 80%
    19:00 +13°C° 0 mm 4 mps 741 mmHg 84%
    20:00 +11°C° 0 mm 3 mps 741 mmHg 88%
    21:00 +9°C° 0 mm 2 mps 741 mmHg 92%
    22:00 +8°C° 0 mm 2 mps 742 mmHg 93%
    23:00 +8°C° 0 mm 2 mps 742 mmHg 94%

    Day after tomorrow, 20 June, Thursday

    Time Temperature Precipitation Wind Pressure Humidity
    00:00 +8°C° 0 mm 2 mps 742 mmHg 95%
    01:00 +8°C° 0 mm 2 mps 742 mmHg 96%
    02:00 +8°C° 0 mm 2 mps 742 mmHg 96%
    03:00 +8°C° 0 mm 2 mps 742 mmHg 96%
    04:00 +9°C° 0 mm 2 mps 742 mmHg 94%
    05:00 +10°C° 0 mm 2 mps 742 mmHg 92%
    06:00 +11°C° 0 mm 1 mps 743 mmHg 90%
    07:00 +12°C° 0.1 mm 2 mps 743 mmHg 86%
    08:00 +12°C° 0.1 mm 3 mps 743 mmHg 82%
    09:00 +14°C° 0.1 mm 4 mps 743 mmHg 78%
    10:00 +14°C° 0.2 mm 4 mps 743 mmHg 79%
    11:00 +14°C° 0.2 mm 5 mps 744 mmHg 80%
    12:00 +14°C° 0.2 mm 5 mps 744 mmHg 81%
    13:00 +14°C° 0.3 mm 5 mps 744 mmHg 80%
    14:00 +14°C° 0.3 mm 6 mps 744 mmHg 80%
    15:00 +14°C° 0.3 mm 6 mps 744 mmHg 80%
    16:00 +14°C° 0.1 mm 6 mps 744 mmHg 79%
    17:00 +13°C° 0.1 mm 5 mps 744 mmHg 79%
    18:00 +13°C° 0.1 mm 5 mps 744 mmHg 78%
    19:00 +11°C° 0 mm 4 mps 745 mmHg 83%
    20:00 +10°C° 0 mm 4 mps 745 mmHg 88%
    21:00 +8°C° 0 mm 3 mps 745 mmHg 93%
    22:00 +7°C° 0 mm 3 mps 745 mmHg 93%
    23:00 +7°C° 0 mm 2 mps 746 mmHg 94%

    21 June, Friday

    Time Temperature Precipitation Wind Pressure Humidity
    00:00 +7°C° 0 mm 2 mps 746 mmHg 94%
    01:00 +7°C° 0 mm 2 mps 746 mmHg 94%
    02:00 +7°C° 0 mm 2 mps 746 mmHg 94%
    03:00 +6°C° 0 mm 2 mps 746 mmHg 95%
    04:00 +7°C° 0 mm 2 mps 746 mmHg 92%
    05:00 +8°C° 0 mm 2 mps 747 mmHg 90%
    06:00 +9°C° 0 mm 2 mps 747 mmHg 87%
    07:00 +10°C° 0 mm 2 mps 747 mmHg 82%
    08:00 +11°C° 0 mm 3 mps 748 mmHg 77%
    09:00 +13°C° 0 mm 4 mps 748 mmHg 72%
    10:00 +13°C° 0 mm 4 mps 748 mmHg 70%
    11:00 +14°C° 0 mm 4 mps 748 mmHg 68%
    12:00 +16°C° 0 mm 3 mps 749 mmHg 67%
    13:00 +16°C° 0 mm 3 mps 749 mmHg 68%
    14:00 +16°C° 0 mm 3 mps 749 mmHg 69%
    15:00 +16°C° 0 mm 3 mps 749 mmHg 70%
    16:00 +14°C° 0.1 mm 3 mps 749 mmHg 72%
    17:00 +14°C° 0.1 mm 3 mps 749 mmHg 75%
    18:00 +14°C° 0.1 mm 3 mps 749 mmHg 77%
    19:00 +13°C° 0 mm 2 mps 749 mmHg 81%
    20:00 +10°C° 0 mm 2 mps 749 mmHg 86%
    21:00 +9°C° 0 mm 1 mps 750 mmHg 90%
    22:00 +9°C° 0 mm 1 mps 750 mmHg 90%
    23:00 +8°C° 0 mm 1 mps 750 mmHg 91%

    22 June, Saturday

    Time Temperature Precipitation Wind Pressure Humidity
    00:00 +7°C° 0 mm 1 mps 750 mmHg 91%
    01:00 +7°C° 0 mm 1 mps 750 mmHg 91%
    02:00 +7°C° 0 mm 1 mps 749 mmHg 91%
    03:00 +6°C° 0 mm 0 mps 749 mmHg 91%
    04:00 +7°C° 0 mm 0 mps 749 mmHg 90%
    05:00 +8°C° 0 mm 0 mps 750 mmHg 88%
    06:00 +9°C° 0 mm 0 mps 750 mmHg 87%
    07:00 +11°C° 0 mm 0 mps 750 mmHg 83%
    08:00 +12°C° 0 mm 0 mps 750 mmHg 79%
    09:00 +14°C° 0 mm 0 mps 750 mmHg 74%
    10:00 +16°C° 0.1 mm 1 mps 750 mmHg 74%
    11:00 +16°C° 0.1 mm 1 mps 750 mmHg 73%
    12:00 +18°C° 0.1 mm 1 mps 750 mmHg 72%
    13:00 +18°C° 0.2 mm 1 mps 750 mmHg 71%
    14:00 +19°C° 0.2 mm 1 mps 750 mmHg 71%
    15:00 +19°C° 0.2 mm 1 mps 750 mmHg 70%
    16:00 +19°C° 0.2 mm 1 mps 749 mmHg 72%
    17:00 +19°C° 0.2 mm 1 mps 749 mmHg 74%
    18:00 +18°C° 0.2 mm 1 mps 749 mmHg 76%
    19:00 +15°C° 0.1 mm 0 mps 749 mmHg 79%
    20:00 +13°C° 0.1 mm 0 mps 749 mmHg 82%
    21:00 +12°C° 0.1 mm 0 mps 750 mmHg 85%
    22:00 +11°C° 0 mm 0 mps 749 mmHg 87%
    23:00 +11°C° 0 mm 0 mps 749 mmHg 88%

    23 June, Sunday

    Time Temperature Precipitation Wind Pressure Humidity
    00:00 +10°C° 0 mm 0 mps 749 mmHg 89%
    01:00 +11°C° 0 mm 1 mps 749 mmHg 90%
    02:00 +11°C° 0 mm 1 mps 749 mmHg 90%
    03:00 +10°C° 0 mm 1 mps 749 mmHg 91%
    04:00 +11°C° 0 mm 1 mps 749 mmHg 91%
    05:00 +12°C° 0 mm 1 mps 749 mmHg 90%
    06:00 +12°C° 0 mm 2 mps 749 mmHg 90%
    07:00 +13°C° 0 mm 2 mps 749 mmHg 87%
    08:00 +14°C° 0 mm 3 mps 749 mmHg 83%
    09:00 +15°C° 0 mm 4 mps 749 mmHg 79%
    10:00 +17°C° 0 mm 4 mps 749 mmHg 77%
    11:00 +16°C° 0 mm 5 mps 749 mmHg 75%
    12:00 +17°C° 0 mm 6 mps 749 mmHg 73%
    13:00 +17°C° 0.1 mm 6 mps 749 mmHg 76%
    14:00 +17°C° 0.1 mm 5 mps 748 mmHg 78%
    15:00 +17°C° 0.1 mm 5 mps 748 mmHg 81%
    16:00 +16°C° 0.3 mm 5 mps 748 mmHg 84%
    17:00 +16°C° 0.3 mm 5 mps 747 mmHg 88%
    18:00 +15°C° 0.3 mm 5 mps 747 mmHg 91%
    19:00 +14°C° 0.6 mm 6 mps 747 mmHg 93%
    20:00 +14°C° 0.6 mm 6 mps 747 mmHg 94%
    21:00 +12°C° 0.6 mm 7 mps 747 mmHg 96%
    22:00 +12°C° 0.4 mm 7 mps 747 mmHg 96%
    23:00 +11°C° 0.4 mm 7 mps 747 mmHg 96%
    Show more